Retour au catalogue

STARLINK-31798

ActifCommunicationsVLEO
NORAD 59635·PAYLOAD·🇺🇸 United States

Lancé May 3, 2024 depuis Cape Canaveral Space Force Station

Loading…

Prochains Passages (prochaines 24 heures)

TLE

FraisSource: CelesTrak SupGP

Époque: Sep 15, 2026, 02:01 UTC

1 59635C 24082E   26258.08451389  .00010018  00000+0  36289-3 0  2583
2 59635  43.0020 150.5559 0001415 273.4961  78.5150 15.27570442    16

Suivez STARLINK-31798 en temps réel avec AllMySat

Download on the App Store